SWA2636 KCOS-KDEN

Flight info

Callsign SWA2636
Flight time 0h 16m
Altitude 13000
Route ADANE V389 LUFSE JEFEL FQF
Aircraft B737/M-SDE2E3FGHIRWXY/LB1

Departure

Time 2026-05-06 03:53
Airport City of Colorado Springs Municipal Airport (KCOS)

Arrival

Time 2026-05-06 04:09
Airport Denver International Airport (KDEN)
Time Latitude Longitude Altitude Speed Heading
2026-05-06 03:13 38.79973 -104.70022 6144 ft 0 kts 259°
2026-05-06 03:30 38.79977 -104.69995 6144 ft 4 kts 259°
2026-05-06 03:31 38.79982 -104.69962 6144 ft 4 kts 259°
2026-05-06 03:31 38.79987 -104.69928 6144 ft 1 kts 259°
2026-05-06 03:33 38.79984 -104.69930 6144 ft 1 kts 224°
2026-05-06 03:33 38.79978 -104.69922 6144 ft 2 kts 124°
2026-05-06 03:33 38.79975 -104.69870 6144 ft 7 kts 91°
2026-05-06 03:34 38.79975 -104.69854 6144 ft 0 kts 91°
2026-05-06 03:41 38.79966 -104.69852 6144 ft 2 kts 184°
2026-05-06 03:42 38.79966 -104.69881 6144 ft 7 kts 291°
2026-05-06 03:42 38.80001 -104.69921 6145 ft 7 kts 346°
2026-05-06 03:42 38.80049 -104.69923 6146 ft 7 kts 357°
2026-05-06 03:42 38.80075 -104.69965 6147 ft 7 kts 273°
2026-05-06 03:43 38.80075 -104.69993 6147 ft 0 kts 269°
2026-05-06 03:45 38.80075 -104.69995 6147 ft 0 kts 269°
2026-05-06 03:45 38.80075 -104.69999 6147 ft 2 kts 269°
2026-05-06 03:45 38.80076 -104.70044 6147 ft 9 kts 276°
2026-05-06 03:46 38.80150 -104.70087 6148 ft 14 kts 356°
2026-05-06 03:46 38.80245 -104.70085 6150 ft 13 kts
2026-05-06 03:46 38.80278 -104.69992 6150 ft 13 kts 89°
2026-05-06 03:46 38.80278 -104.69879 6150 ft 13 kts 90°
2026-05-06 03:47 38.80279 -104.69768 6150 ft 12 kts 89°
2026-05-06 03:47 38.80280 -104.69657 6150 ft 14 kts 90°
2026-05-06 03:47 38.80279 -104.69507 6150 ft 19 kts 90°
2026-05-06 03:47 38.80280 -104.69322 6150 ft 23 kts 89°
2026-05-06 03:48 38.80279 -104.69104 6150 ft 26 kts 89°
2026-05-06 03:48 38.80280 -104.68859 6150 ft 28 kts 91°
2026-05-06 03:48 38.80152 -104.68787 6148 ft 22 kts 179°
2026-05-06 03:48 38.79999 -104.68796 6146 ft 22 kts 182°
2026-05-06 03:49 38.79850 -104.68789 6144 ft 21 kts 178°
2026-05-06 03:49 38.79706 -104.68789 6141 ft 20 kts 179°
2026-05-06 03:49 38.79566 -104.68789 6139 ft 20 kts 180°
2026-05-06 03:49 38.79431 -104.68789 6137 ft 19 kts 179°
2026-05-06 03:50 38.79301 -104.68787 6135 ft 19 kts 179°
2026-05-06 03:50 38.79173 -104.68789 6133 ft 18 kts 181°
2026-05-06 03:50 38.79052 -104.68789 6131 ft 17 kts 179°
2026-05-06 03:50 38.78915 -104.68789 6129 ft 23 kts 182°
2026-05-06 03:51 38.78726 -104.68790 6125 ft 31 kts 180°
2026-05-06 03:51 38.78517 -104.68790 6122 ft 29 kts 180°
2026-05-06 03:51 38.78321 -104.68790 6119 ft 27 kts 180°
2026-05-06 03:51 38.78139 -104.68789 6116 ft 25 kts 180°
2026-05-06 03:52 38.77970 -104.68788 6108 ft 23 kts 180°
2026-05-06 03:52 38.77909 -104.68678 6112 ft 17 kts 84°
2026-05-06 03:52 38.77951 -104.68581 6101 ft 12 kts 359°
2026-05-06 03:52 38.78202 -104.68582 6117 ft 71 kts
2026-05-06 03:53 38.78931 -104.68581 6130 ft 135 kts 358°
2026-05-06 03:53 38.79973 -104.68633 6541 ft 160 kts 354°
2026-05-06 03:53 38.81127 -104.68564 7247 ft 175 kts 16°
2026-05-06 03:53 38.82390 -104.68128 7684 ft 204 kts 17°
2026-05-06 03:54 38.83853 -104.67560 7946 ft 237 kts 22°
2026-05-06 03:54 38.85239 -104.66210 8215 ft 269 kts 54°
2026-05-06 03:54 38.86091 -104.64004 8809 ft 286 kts 74°
2026-05-06 03:54 38.86664 -104.61525 9797 ft 294 kts 76°
2026-05-06 03:55 38.87234 -104.58934 10536 ft 312 kts 76°
2026-05-06 03:55 38.87857 -104.56114 10786 ft 344 kts 75°
2026-05-06 03:55 38.88544 -104.53083 11404 ft 360 kts 74°
2026-05-06 03:55 38.89263 -104.49972 12232 ft 369 kts 73°
2026-05-06 03:56 38.90004 -104.46785 12781 ft 375 kts 72°
2026-05-06 03:56 38.91017 -104.43754 12974 ft 372 kts 54°
2026-05-06 03:56 38.92798 -104.41412 13012 ft 364 kts 31°
2026-05-06 03:56 38.95035 -104.39992 13017 ft 357 kts 14°
2026-05-06 03:57 38.97431 -104.39477 13015 ft 351 kts
2026-05-06 03:57 38.99923 -104.39342 13028 ft 371 kts 358°
2026-05-06 03:57 39.02600 -104.39265 13014 ft 395 kts 358°
2026-05-06 03:57 39.05360 -104.39176 12990 ft 397 kts 358°
2026-05-06 03:58 39.08125 -104.39063 12988 ft 398 kts 359°
2026-05-06 03:58 39.10892 -104.38932 12988 ft 398 kts 359°
2026-05-06 03:58 39.13664 -104.38793 12995 ft 399 kts 359°
2026-05-06 03:58 39.16434 -104.38652 12978 ft 398 kts 359°
2026-05-06 03:59 39.19200 -104.38395 12968 ft 399 kts
2026-05-06 03:59 39.21952 -104.38267 12946 ft 393 kts 348°
2026-05-06 03:59 39.24503 -104.39354 12976 ft 385 kts 332°
2026-05-06 03:59 39.26875 -104.40954 12966 ft 384 kts 328°
2026-05-06 04:00 39.29204 -104.42643 12961 ft 384 kts 327°
2026-05-06 04:00 39.31520 -104.44352 12962 ft 381 kts 327°
2026-05-06 04:00 39.33772 -104.46017 12805 ft 364 kts 327°
2026-05-06 04:00 39.35893 -104.47585 12539 ft 348 kts 327°
2026-05-06 04:01 39.37934 -104.49095 12279 ft 334 kts 327°
2026-05-06 04:01 39.39889 -104.50545 12033 ft 322 kts 327°
2026-05-06 04:01 39.41798 -104.51966 11773 ft 312 kts 327°
2026-05-06 04:01 39.43629 -104.53337 11514 ft 303 kts 327°
2026-05-06 04:02 39.45427 -104.54692 11266 ft 296 kts 327°
2026-05-06 04:02 39.47187 -104.56023 11024 ft 294 kts 328°
2026-05-06 04:02 39.48950 -104.57366 10791 ft 295 kts 327°
2026-05-06 04:02 39.50704 -104.58713 10542 ft 290 kts 327°
2026-05-06 04:03 39.52422 -104.60040 10299 ft 285 kts 328°
2026-05-06 04:03 39.54104 -104.61350 10053 ft 280 kts 328°
2026-05-06 04:03 39.55755 -104.62659 9802 ft 276 kts 328°
2026-05-06 04:03 39.57370 -104.63968 9518 ft 272 kts 328°
2026-05-06 04:04 39.58956 -104.65268 9247 ft 268 kts 328°
2026-05-06 04:04 39.60619 -104.66272 9001 ft 262 kts 352°
2026-05-06 04:04 39.62380 -104.66313 8977 ft 247 kts
2026-05-06 04:04 39.64057 -104.66276 8977 ft 232 kts
2026-05-06 04:05 39.65618 -104.66261 8889 ft 218 kts
2026-05-06 04:05 39.67107 -104.66245 8645 ft 211 kts
2026-05-06 04:05 39.68556 -104.66228 8365 ft 205 kts
2026-05-06 04:05 39.69968 -104.66211 8081 ft 200 kts
2026-05-06 04:06 39.71328 -104.66194 7840 ft 192 kts
2026-05-06 04:06 39.72657 -104.66178 7567 ft 191 kts
2026-05-06 04:06 39.73968 -104.66162 7316 ft 190 kts
2026-05-06 04:06 39.75279 -104.66146 7074 ft 189 kts
2026-05-06 04:07 39.76511 -104.66133 6839 ft 170 kts
2026-05-06 04:07 39.77630 -104.66119 6637 ft 154 kts
2026-05-06 04:07 39.78654 -104.66106 6402 ft 142 kts
2026-05-06 04:07 39.79621 -104.66094 6174 ft 139 kts
2026-05-06 04:08 39.80583 -104.66083 5957 ft 138 kts
2026-05-06 04:08 39.81541 -104.66070 5763 ft 138 kts 359°
2026-05-06 04:08 39.82516 -104.66057 5554 ft 141 kts 359°
2026-05-06 04:08 39.83477 -104.66048 5443 ft 129 kts 359°
2026-05-06 04:09 39.84265 -104.66039 5415 ft 95 kts
2026-05-06 04:09 39.84769 -104.66035 5408 ft 50 kts
2026-05-06 04:09 39.85097 -104.66048 5395 ft 41 kts 352°
2026-05-06 04:09 39.85306 -104.66164 5391 ft 18 kts 331°
2026-05-06 04:10 39.85358 -104.66201 5390 ft 2 kts 330°
2026-05-06 04:10 39.85397 -104.66222 5387 ft 12 kts 343°
2026-05-06 04:10 39.85509 -104.66237 5393 ft 18 kts 359°
2026-05-06 04:10 39.85639 -104.66236 5392 ft 19 kts
2026-05-06 04:11 39.85774 -104.66232 5387 ft 19 kts
2026-05-06 04:11 39.85905 -104.66231 5385 ft 19 kts 358°
2026-05-06 04:11 39.86030 -104.66234 5386 ft 18 kts 359°
2026-05-06 04:11 39.86105 -104.66327 5378 ft 18 kts 270°
2026-05-06 04:12 39.86110 -104.66494 5372 ft 18 kts 277°
2026-05-06 04:12 39.86129 -104.66657 5376 ft 18 kts 279°
2026-05-06 04:12 39.86166 -104.66807 5374 ft 17 kts 292°
2026-05-06 04:12 39.86189 -104.66954 5376 ft 13 kts 277°
2026-05-06 04:13 39.86237 -104.66999 5375 ft 6 kts
2026-05-06 04:13 39.86252 -104.66999 5371 ft 2 kts 360°
2026-05-06 04:13 39.86255 -104.66999 5374 ft 0 kts 359°